Weather History for KPDC - July, 2013

Change the Weather History Date:

Tuesday, July 2, 2013

  Actual Average Record
Temperature  
Mean Temperature 69 °F -  
Max Temperature 79 °F 85 °F 97 °F (1963)
Min Temperature 59 °F 61 °F 49 °F (1959)
Cooling Degree Days 4    
Growing Degree Days 19 (Base 50)    
Moisture  
Dew Point 56 °F    
Average Humidity 66    
Maximum Humidity 93    
Minimum Humidity 40    
Precipitation  
Precipitation 0.00 in - - ()
Sea Level Pressure  
Sea Level Pressure 30.09 in    
Wind  
Wind Speed 3 mph (East)    
Max Wind Speed 12 mph    
Max Gust Speed -    
Visibility 10 miles    
Events      
Averages and records for this station are not official NWS values.
T = Trace of Precipitation, MM = Missing Value Source: NWS Daily Summary

Daily Weather History Graph

Daily Weather History Graph

Search for Another Location

Airport or City:

Trip Planner

Search our weather history database for the weather conditions in past years. The results will help you decide how hot, cold, wet, or windy it might be!

Date:

Astronomy

Jul. 02, 2013 Rise Set
Actual Time 5:29 AM CDT 8:47 PM CDT
Civil Twilight 4:54 AM CDT 9:22 PM CDT
Nautical Twilight 4:09 AM CDT 10:07 PM CDT
Astronomical Twilight 3:13 AM CDT 11:03 PM CDT
Moon 1:37 AM CDT (7/2) 3:57 PM CDT (7/2)
Length of Visible Light 16h 27m
Length of Day
15h 17m
Waning Crescent, 26% of the Moon is Illuminated
Jul 2
Waning Crescent
Jul 8
New
Jul 15
First Quarter
Jul 22
Full
Jul 29
Last Quarter

Hourly Weather History & Observations

Time (CDT) Temp. Dew Point Humidity Pressure Visibility Wind Dir Wind Speed Gust Speed Precip Events Conditions
12:15 AM 63.1 °F 56.5 °F 79% 30.12 in 10.0 mi Calm Calm - N/A   Overcast
12:35 AM 63.1 °F 56.8 °F 80% 30.12 in 10.0 mi Calm Calm - N/A   Overcast
12:55 AM 63.0 °F 56.8 °F 80% 30.12 in 10.0 mi Calm Calm - N/A   Mostly Cloudy
1:15 AM 61.9 °F 57.4 °F 85% 30.11 in 10.0 mi Calm Calm - N/A   Scattered Clouds
1:35 AM 61.7 °F 57.2 °F 85% 30.11 in 10.0 mi Calm Calm - N/A   Mostly Cloudy
1:55 AM 62.4 °F 58.1 °F 86% 30.12 in 10.0 mi Calm Calm - N/A   Overcast
2:15 AM 64.2 °F 59.2 °F 84% 30.12 in 10.0 mi Calm Calm - N/A   Mostly Cloudy
2:35 AM 61.9 °F 58.5 °F 89% 30.11 in 10.0 mi ESE 3.5 mph - N/A   Scattered Clouds
2:55 AM 61.2 °F 58.3 °F 90% 30.11 in 10.0 mi Calm Calm - N/A   Mostly Cloudy
3:15 AM 61.2 °F 58.1 °F 90% 30.10 in 10.0 mi East 3.5 mph - N/A   Scattered Clouds
3:35 AM 60.1 °F 57.6 °F 91% 30.09 in 10.0 mi ESE 4.6 mph - N/A   Clear
3:55 AM 60.3 °F 57.6 °F 91% 30.10 in 10.0 mi Calm Calm - N/A   Scattered Clouds
4:15 AM 59.7 °F 57.6 °F 93% 30.10 in 10.0 mi ESE 3.5 mph - N/A   Scattered Clouds
4:35 AM 59.4 °F 57.2 °F 93% 30.10 in 10.0 mi East 4.6 mph - N/A   Scattered Clouds
4:55 AM 59.7 °F 57.4 °F 92% 30.11 in 10.0 mi Calm Calm - N/A   Mostly Cloudy
5:15 AM 59.9 °F 57.6 °F 92% 30.11 in 10.0 mi Calm Calm - N/A   Scattered Clouds
5:35 AM 59.4 °F 57.4 °F 93% 30.11 in 10.0 mi ENE 3.5 mph - N/A   Scattered Clouds
5:55 AM 59.0 °F 56.8 °F 93% 30.11 in 10.0 mi Calm Calm - N/A   Scattered Clouds
6:15 AM 59.0 °F 56.8 °F 93% 30.11 in 10.0 mi Calm Calm - N/A   Clear
6:35 AM 59.7 °F 57.2 °F 91% 30.12 in 10.0 mi Calm Calm - N/A   Clear
6:55 AM 60.4 °F 58.3 °F 93% 30.12 in 10.0 mi East 4.6 mph - N/A   Clear
7:15 AM 61.2 °F 58.6 °F 91% 30.12 in 10.0 mi ESE 4.6 mph - N/A   Clear
7:35 AM 61.2 °F 59.0 °F 93% 30.12 in 10.0 mi ESE 3.5 mph - N/A   Clear
7:55 AM 62.6 °F 59.5 °F 90% 30.12 in 10.0 mi ESE 3.5 mph - N/A   Clear
8:15 AM 64.4 °F 59.5 °F 84% 30.12 in 10.0 mi Calm Calm - N/A   Clear
8:35 AM 66.4 °F 59.5 °F 79% 30.12 in 10.0 mi Calm Calm - N/A   Clear
9:15 AM 68.5 °F 57.2 °F 67% 30.12 in 10.0 mi ESE 5.8 mph - N/A   Scattered Clouds
9:35 AM 70.0 °F 56.8 °F 63% 30.11 in 10.0 mi ESE 5.8 mph - N/A   Mostly Cloudy
9:55 AM 70.7 °F 55.6 °F 59% 30.11 in 10.0 mi East 4.6 mph - N/A   Scattered Clouds
10:15 AM 71.8 °F 56.5 °F 58% 30.10 in 10.0 mi East 3.5 mph - N/A   Clear
10:35 AM 72.9 °F 56.1 °F 56% 30.10 in 10.0 mi ENE 3.5 mph - N/A   Clear
10:55 AM 74.1 °F 53.8 °F 49% 30.10 in 10.0 mi East 4.6 mph - N/A   Clear
11:15 AM 75.2 °F 50.9 °F 42% 30.10 in 10.0 mi East 5.8 mph - N/A   Scattered Clouds
11:35 AM 75.6 °F 52.3 °F 44% 30.09 in 10.0 mi East 4.6 mph - N/A   Scattered Clouds
11:55 AM 75.9 °F 53.2 °F 45% 30.09 in 10.0 mi SE 3.5 mph - N/A   Clear
12:15 PM 77.2 °F 52.5 °F 42% 30.09 in 10.0 mi ENE 4.6 mph - N/A   Clear
12:35 PM 77.2 °F 52.0 °F 41% 30.09 in 10.0 mi ENE 3.5 mph - N/A   Clear
12:55 PM 77.4 °F 52.3 °F 42% 30.09 in 10.0 mi East 3.5 mph - N/A   Clear
1:15 PM 77.9 °F 51.4 °F 40% 30.08 in 10.0 mi East 5.8 mph - N/A   Clear
1:35 PM 77.2 °F 53.1 °F 43% 30.07 in 10.0 mi East 4.6 mph - N/A   Scattered Clouds
1:55 PM 78.6 °F 52.9 °F 41% 30.07 in 10.0 mi East 8.1 mph - N/A   Scattered Clouds
2:15 PM 78.8 °F 53.6 °F 42% 30.06 in 10.0 mi ENE 8.1 mph - N/A   Scattered Clouds
2:35 PM 77.5 °F 53.8 °F 44% 30.07 in 10.0 mi NE 5.8 mph - N/A   Scattered Clouds
2:55 PM 79.2 °F 53.8 °F 41% 30.06 in 10.0 mi NE 8.1 mph - N/A   Scattered Clouds
3:15 PM 78.6 °F 52.9 °F 41% 30.06 in 10.0 mi NE 5.8 mph - N/A   Scattered Clouds
3:35 PM 78.4 °F 52.3 °F 40% 30.05 in 10.0 mi North 3.5 mph - N/A   Scattered Clouds
3:55 PM 78.1 °F 53.2 °F 42% 30.05 in 10.0 mi East 5.8 mph - N/A   Clear
4:15 PM 76.8 °F 54.0 °F 45% 30.05 in 10.0 mi NE 8.1 mph - N/A   Mostly Cloudy
4:35 PM 77.2 °F 55.4 °F 47% 30.05 in 10.0 mi ENE 8.1 mph - N/A   Overcast
4:55 PM 78.3 °F 54.9 °F 44% 30.05 in 10.0 mi NE 5.8 mph - N/A   Scattered Clouds
5:15 PM 76.3 °F 55.9 °F 49% 30.05 in 10.0 mi ENE 8.1 mph - N/A   Scattered Clouds
5:35 PM 77.2 °F 55.8 °F 47% 30.05 in 10.0 mi East 8.1 mph - N/A   Scattered Clouds
5:55 PM 76.5 °F 54.9 °F 47% 30.04 in 10.0 mi ENE 11.5 mph - N/A   Scattered Clouds
6:15 PM 76.3 °F 54.1 °F 46% 30.04 in 10.0 mi ENE 10.4 mph - N/A   Scattered Clouds
6:35 PM 76.1 °F 54.1 °F 46% 30.05 in 10.0 mi NE 8.1 mph - N/A   Clear
6:55 PM 75.6 °F 54.3 °F 48% 30.05 in 10.0 mi ENE 6.9 mph - N/A   Clear
7:15 PM 74.8 °F 55.9 °F 52% 30.05 in 10.0 mi ENE 5.8 mph - N/A   Clear
7:35 PM 74.1 °F 56.1 °F 53% 30.05 in 10.0 mi ENE 5.8 mph - N/A   Clear
7:55 PM 72.9 °F 55.6 °F 55% 30.05 in 10.0 mi ENE 8.1 mph - N/A   Clear
8:15 PM 72.1 °F 54.7 °F 54% 30.05 in 10.0 mi East 5.8 mph - N/A   Clear
8:35 PM 70.7 °F 55.4 °F 58% 30.05 in 10.0 mi East 4.6 mph - N/A   Clear
8:55 PM 68.5 °F 56.3 °F 65% 30.05 in 10.0 mi ENE 5.8 mph - N/A   Clear
9:15 PM 68.0 °F 55.8 °F 65% 30.06 in 10.0 mi East 5.8 mph - N/A   Clear
9:35 PM 67.3 °F 55.9 °F 67% 30.07 in 10.0 mi ESE 3.5 mph - N/A   Clear
9:55 PM 66.4 °F 55.6 °F 68% 30.08 in 10.0 mi Calm Calm - N/A   Clear
10:15 PM 65.5 °F 55.6 °F 70% 30.08 in 10.0 mi Calm Calm - N/A   Clear
10:35 PM 64.9 °F 56.3 °F 74% 30.09 in 10.0 mi Calm Calm - N/A   Clear
10:55 PM 62.2 °F 56.7 °F 82% 30.09 in 10.0 mi Calm Calm - N/A   Clear
11:15 PM 61.2 °F 55.9 °F 83% 30.08 in 10.0 mi Calm Calm - N/A   Clear
11:35 PM 60.6 °F 56.1 °F 85% 30.09 in 10.0 mi Calm Calm - N/A   Clear
11:55 PM 59.7 °F 54.5 °F 83% 30.09 in 10.0 mi Calm Calm - N/A   Clear